(159758) = 2003 FZ122

Discovered at Cerro Tololo on 2003-03-31 by Deep Lens Survey.

Orbit

Orbit type: Main Belt

Note: WebGL enabled browser required.

epoch2023-09-13.0
epoch JD2460200.5
perihelion date2023-01-30.36314
perihelion JD2459974.86314
argument of perihelion (°)251.42167
ascending node (°)30.58301
inclination (°)6.41365
eccentricity0.1155366
perihelion distance (AU)2.1632154
Tisserand w.r.t. Jupiter3.5
ΔV w.r.t. Earth (km/sec)9.4
semimajor axis (AU)2.4457942
mean anomaly (°)58.14120
mean daily motion (°/day)0.25767600
aphelion distance (AU)2.728
period (years)3.82
P-vector [x]0.20497331
P-vector [y]-0.85061300
P-vector [z]-0.48419363
Q-vector [x]0.97711607
Q-vector [y]0.20656031
Q-vector [z]0.05076445
absolute magnitude16.62
phase slope0.15
uncertainty0
referenceMPEC 2024-A48
observations used359
oppositions14
arc length (days)7556
first opposition used2003
last opposition used2023
residual rms (arc-secs)0.75
perturbers coarse indicatorM-v
perturbers precise indicator003Ek
first observation date used2003-03-31.0
last observation date used2023-12-07.0
computer nameMPCLINUX
JD of orbit computation2456789.311453
perihelion JD uncertainty (days)3.7629E-04
argument of perihelion uncertainty (°)8.8443E-05
ascending node uncertainty (°)2.9851E-05
inclination uncertainty (°)1.0000E-05
eccentricity uncertainty 4.1588E-08
perihelion distance uncertainty (AU)1.1169E-07
Minimum Orbit Intersection Distances (in AU)
for orbit epoch: 2460200.5, reference: E2024-A48
Mercury1.70292
Venus1.43915
Earth1.15673
Mars0.70034
Jupiter2.39181
Saturn6.35458
Uranus15.8608
Neptune27.2622

Observations

366 total observations over interval: 2003 03 31.35311 – 2023 12 07.099065
These data are available for download (format description).

Date (UT) J2000 RA J2000 Dec Magn Location Ref
2003 03 31.35311 13 58 31.60 -10 25 04.1 19.6 z 807 – Cerro Tololo Observatory, La Serena MPS 76458
2003 03 31.36124 13 58 31.21 -10 25 03.3 19.5 z 807 – Cerro Tololo Observatory, La Serena MPS 76458
2003 03 31.36938 13 58 30.80 -10 25 02.7 19.3 z 807 – Cerro Tololo Observatory, La Serena MPS 76458
2003 03 31.37750 13 58 30.41 -10 25 02.0 19.2 z 807 – Cerro Tololo Observatory, La Serena MPS 76458
2003 04 01.18588 13 57 51.95 -10 23 51.8   807 – Cerro Tololo Observatory, La Serena MPS 78424
2003 04 01.20909 13 57 50.81 -10 23 50.2 19.5 R 807 – Cerro Tololo Observatory, La Serena MPS 78424
2003 04 02.37659 13 56 52.69 -10 22 03.1 19.5 V 807 – Cerro Tololo Observatory, La Serena MPS 76458
2003 04 02.38472 13 56 52.27 -10 22 02.2 20.0 V 807 – Cerro Tololo Observatory, La Serena MPS 76458
2003 04 02.39285 13 56 51.85 -10 22 01.4 19.6 V 807 – Cerro Tololo Observatory, La Serena MPS 76459
2003 04 02.40098 13 56 51.44 -10 22 00.8 19.6 V 807 – Cerro Tololo Observatory, La Serena MPS 76459
2003 04 02.40911 13 56 51.02 -10 21 59.9 19.6 V 807 – Cerro Tololo Observatory, La Serena MPS 76459
2003 04 24.25943 13 35 38.95 -09 36 15.3 19.2 R 699 – Lowell Observatory-LONEOS MPS 78424
2003 04 24.27690 13 35 37.87 -09 36 13.2   699 – Lowell Observatory-LONEOS MPS 78424
2003 04 24.29435 13 35 36.71 -09 36 10.1   699 – Lowell Observatory-LONEOS MPS 78424
2003 04 24.31175 13 35 35.66 -09 36 07.2   699 – Lowell Observatory-LONEOS MPS 78424
2003 04 25.22687 13 34 40.88 -09 34 05.3 19.9 V 691 – Steward Observatory, Kitt Peak-Spacewatch MPS 78424
2003 04 25.25426 13 34 39.19 -09 34 01.9 19.9 V 691 – Steward Observatory, Kitt Peak-Spacewatch MPS 78424
2003 04 25.28097 13 34 37.52 -09 33 58.2 19.7 V 691 – Steward Observatory, Kitt Peak-Spacewatch MPS 78424
2003 05 05.23040 13 25 16.51 -09 14 40.1 20.1 V 691 – Steward Observatory, Kitt Peak-Spacewatch MPS 78424
2003 05 05.25640 13 25 15.13 -09 14 37.7 20.0 V 691 – Steward Observatory, Kitt Peak-Spacewatch MPS 78424
2003 05 05.29256 13 25 13.20 -09 14 34.3 20.1 V 691 – Steward Observatory, Kitt Peak-Spacewatch MPS 78424
2003 05 10.14838 13 21 17.97 -09 08 01.9 21.0 V 691 – Steward Observatory, Kitt Peak-Spacewatch MPS 80217
2003 05 10.17480 13 21 16.71 -09 08 00.5 21.1 V 691 – Steward Observatory, Kitt Peak-Spacewatch MPS 80217
2003 05 10.20113 13 21 15.48 -09 07 58.5 21.0 V 691 – Steward Observatory, Kitt Peak-Spacewatch MPS 80217
2004 09 09.25543 01 08 00.88 +02 08 21.5 19.8   704 – Lincoln Laboratory ETS, New Mexico MPS 117605
2004 09 09.26709 01 08 00.43 +02 08 19.6 19.4   704 – Lincoln Laboratory ETS, New Mexico MPS 117605
2004 09 09.27895 01 07 59.84 +02 08 17.5 20.1   704 – Lincoln Laboratory ETS, New Mexico MPS 117605
2004 10 04.18539 00 45 47.50 +00 51 49.6 19.7 V 691 – Steward Observatory, Kitt Peak-Spacewatch MPS 117605
2004 10 04.21285 00 45 45.80 +00 51 44.4 19.7 V 691 – Steward Observatory, Kitt Peak-Spacewatch MPS 117605
2004 10 04.24068 00 45 44.10 +00 51 39.1 19.6 V 691 – Steward Observatory, Kitt Peak-Spacewatch MPS 117605
2004 10 05.23379 00 44 44.63 +00 48 34.9 19.0 R 699 – Lowell Observatory-LONEOS MPS 117605
2004 10 05.25406 00 44 43.25 +00 48 33.0   699 – Lowell Observatory-LONEOS MPS 117605
2004 10 05.27435 00 44 42.09 +00 48 26.9   699 – Lowell Observatory-LONEOS MPS 117605
2004 10 05.29465 00 44 40.83 +00 48 24.1   699 – Lowell Observatory-LONEOS MPS 117605
2004 10 08.319387 00 41 40.844 +00 39 23.90 19.88 V 645 – Apache Point-Sloan Digital Sky Survey MPS 390080
2004 10 08.322859 00 41 40.624 +00 39 23.22 20.97   645 – Apache Point-Sloan Digital Sky Survey MPS 390080
2004 10 09.19989 00 40 49.29 +00 36 54.8 19.4   704 – Lincoln Laboratory ETS, New Mexico MPS 158935
2004 10 09.21061 00 40 48.67 +00 36 52.6 20.0   704 – Lincoln Laboratory ETS, New Mexico MPS 158935
2004 10 09.22132 00 40 48.01 +00 36 51.3 19.8   704 – Lincoln Laboratory ETS, New Mexico MPS 158935
2004 10 09.23204 00 40 47.26 +00 36 50.4 20.1   704 – Lincoln Laboratory ETS, New Mexico MPS 158935
2004 10 09.24275 00 40 46.70 +00 36 47.3 20.3   704 – Lincoln Laboratory ETS, New Mexico MPS 158935
2004 10 14.16490 00 36 05.36 +00 24 00.3 20.0 V 691 – Steward Observatory, Kitt Peak-Spacewatch MPS 117605
2004 10 14.19608 00 36 03.55 +00 23 56.1 20.1 V 691 – Steward Observatory, Kitt Peak-Spacewatch MPS 117605
2004 10 14.22755 00 36 01.73 +00 23 51.9 20.2 V 691 – Steward Observatory, Kitt Peak-Spacewatch MPS 117605
2004 10 16.320317 00 34 07.378 +00 19 10.17 20.01 V 645 – Apache Point-Sloan Digital Sky Survey MPS 390080
2004 10 16.323789 00 34 07.187 +00 19 09.72 20.80   645 – Apache Point-Sloan Digital Sky Survey MPS 390080
2006 01 06.36423 08 05 08.62 +30 25 51.5 20.6 V G96 – Mt. Lemmon Survey MPS 158935
2006 01 06.37089 08 05 08.23 +30 25 53.6 20.3 V G96 – Mt. Lemmon Survey MPS 158935
2006 01 06.37756 08 05 07.76 +30 25 55.2 20.3 V G96 – Mt. Lemmon Survey MPS 158935
2006 01 06.38425 08 05 07.36 +30 25 56.5 20.3 V G96 – Mt. Lemmon Survey MPS 158935
2007 02 25.50064 15 33 08.60 -19 10 23.7 21.0 V G96 – Mt. Lemmon Survey MPS 201490
2007 02 25.50736 15 33 08.96 -19 10 26.4 21.1 V G96 – Mt. Lemmon Survey MPS 201490
2007 02 25.51410 15 33 09.36 -19 10 28.4 20.8 V G96 – Mt. Lemmon Survey MPS 201490
2007 02 25.52094 15 33 09.64 -19 10 30.5 21.1 V G96 – Mt. Lemmon Survey MPS 201490
2007 03 15.46819 15 46 13.51 -20 42 06.4 20.3 V G96 – Mt. Lemmon Survey MPS 203005
2007 03 15.47554 15 46 13.72 -20 42 08.6 20.4 V G96 – Mt. Lemmon Survey MPS 203005
2007 03 15.48290 15 46 13.90 -20 42 10.9 20.8 V G96 – Mt. Lemmon Survey MPS 203005
2007 03 15.49029 15 46 14.19 -20 42 12.4 19.6 V G96 – Mt. Lemmon Survey MPS 203005
2007 05 14.33148 15 22 39.97 -23 16 25.6 19.1   704 – Lincoln Laboratory ETS, New Mexico MPS 208872
2007 05 14.34084 15 22 39.31 -23 16 26.1 19.8   704 – Lincoln Laboratory ETS, New Mexico MPS 208872
2007 05 14.35016 15 22 38.65 -23 16 25.7 19.6   704 – Lincoln Laboratory ETS, New Mexico MPS 208872
2007 05 14.35956 15 22 38.03 -23 16 26.0 19.6   704 – Lincoln Laboratory ETS, New Mexico MPS 208872
2007 06 11.51744 14 56 55.39 -22 54 15.8 20.1 V E12 – Siding Spring Survey MPS 210703
2007 06 11.52814 14 56 54.99 -22 54 15.6 19.6 V E12 – Siding Spring Survey MPS 210703
2007 06 11.53891 14 56 54.56 -22 54 14.2 19.1 V E12 – Siding Spring Survey MPS 210703
2008 09 21.41589 02 29 46.15 +13 34 04.4 20.4 V 691 – Steward Observatory, Kitt Peak-Spacewatch MPS 257643
2008 09 21.43351 02 29 45.60 +13 34 04.2 20.3 V 691 – Steward Observatory, Kitt Peak-Spacewatch MPS 257643
2008 09 21.45112 02 29 45.05 +13 34 04.4 20.4 V 691 – Steward Observatory, Kitt Peak-Spacewatch MPS 257643
2008 09 25.40987 02 27 37.43 +13 33 07.6 20.3 V 691 – Steward Observatory, Kitt Peak-Spacewatch MPS 259003
2008 09 25.42749 02 27 36.79 +13 33 07.0 20.3 V 691 – Steward Observatory, Kitt Peak-Spacewatch MPS 259003
2008 09 25.44858 02 27 35.99 +13 33 06.1 20.3 V 691 – Steward Observatory, Kitt Peak-Spacewatch MPS 259003
2008 09 29.35820 02 25 04.31 +13 30 24.6   691 – Steward Observatory, Kitt Peak-Spacewatch MPS 259003
2008 09 29.37332 02 25 03.65 +13 30 23.8   691 – Steward Observatory, Kitt Peak-Spacewatch MPS 259003
2008 09 29.38845 02 25 02.99 +13 30 23.1   691 – Steward Observatory, Kitt Peak-Spacewatch MPS 259003
2008 10 07.39421 02 18 41.69 +13 19 48.4 20.2 V 691 – Steward Observatory, Kitt Peak-Spacewatch MPS 260175
2008 10 07.41187 02 18 40.71 +13 19 47.0 19.9 V 691 – Steward Observatory, Kitt Peak-Spacewatch MPS 260175
2008 10 07.42952 02 18 39.74 +13 19 44.8 20.2 V 691 – Steward Observatory, Kitt Peak-Spacewatch MPS 260175
2008 10 19.33751 02 07 08.49 +12 53 51.2   291 – LPL/Spacewatch II MPS 261194
2008 10 19.36111 02 07 06.99 +12 53 47.5   291 – LPL/Spacewatch II MPS 261194
2008 10 19.38473 02 07 05.48 +12 53 43.8   291 – LPL/Spacewatch II MPS 261194
2008 10 20.37506 02 06 04.17 +12 51 10.6 19.7 V G96 – Mt. Lemmon Survey MPS 261194
2008 10 20.38003 02 06 03.85 +12 51 09.6 19.5 V G96 – Mt. Lemmon Survey MPS 261194
2008 10 20.38505 02 06 03.52 +12 51 09.0 19.8 V G96 – Mt. Lemmon Survey MPS 261194
2008 10 20.39003 02 06 03.20 +12 51 08.2 19.8 V G96 – Mt. Lemmon Survey MPS 261194
2008 10 26.25276 01 59 57.18 +12 35 21.9 19.9   704 – Lincoln Laboratory ETS, New Mexico MPS 262913
